Location: Lavardac
(44.1778°N, 0.2983°E)
Time: 08:48:48
(UTC+00:00)

COSMOS 2455 - Pass Details

Date: 06 June 2020
Orbit: 899 x 911 km, 67.1° (Epoch: 15 July)

Event Time Altitude Azimuth Distance (km) Brightness Sun altitude
Exits shadow 23:06:35 - 238° (WSW) 3,551 5.8 -22.0°
Rises 23:06:41 0° 238° (WSW) 3,516 5.7 -22.0°
Reaches altitude 10° 23:09:23 10° 247° (WSW) 2,581 5.1 -22.1°
Maximum altitude 23:14:50 35° 312° (NW) 1,415 4.3 -22.3°
Drops below altitude 10° 23:20:21 10° 18° (NNE) 2,601 6.1 -22.5°
Sets 23:23:06 0° 27° (NNE) 3,547 6.8 -22.6°
